VTK601 OMDB-VRMM

Flight info

Callsign VTK601
Flight time N/A
Altitude 39000
Route ANVIX L223 TARDI N629 GIDAN P570 KITAL L894 ELBET ELBET1A
Aircraft A343/H-SDE2E3FGHIJ4J5M1RWXY/LB1D1

Departure

Time 2026-04-21 05:15
Airport Dubai International Airport (OMDB)

Arrival

Time N/A
Airport Velana International Airport (VRMM)
Time Latitude Longitude Altitude Speed Heading
2026-04-21 04:58 25.24133 55.37563 25 ft 0 kts 301°
2026-04-21 05:08 25.24126 55.37577 29 ft 4 kts 301°
2026-04-21 05:08 25.24112 55.37601 25 ft 4 kts 301°
2026-04-21 05:08 25.24099 55.37625 30 ft 4 kts 301°
2026-04-21 05:08 25.24082 55.37645 28 ft 4 kts 346°
2026-04-21 05:09 25.24067 55.37646 25 ft 0 kts 26°
2026-04-21 05:10 25.24077 55.37651 25 ft 8 kts 27°
2026-04-21 05:11 25.24144 55.37694 28 ft 11 kts 30°
2026-04-21 05:11 25.24209 55.37737 25 ft 11 kts 32°
2026-04-21 05:11 25.24277 55.37784 29 ft 12 kts 32°
2026-04-21 05:11 25.24322 55.37815 25 ft 0 kts 32°
2026-04-21 05:12 25.24323 55.37815 25 ft 1 kts 32°
2026-04-21 05:12 25.24373 55.37850 29 ft 13 kts 33°
2026-04-21 05:13 25.24457 55.37913 28 ft 16 kts 34°
2026-04-21 05:13 25.24563 55.37995 27 ft 21 kts 35°
2026-04-21 05:13 25.24684 55.38085 29 ft 16 kts 31°
2026-04-21 05:13 25.24776 55.38072 30 ft 14 kts 315°
2026-04-21 05:14 25.24819 55.38002 29 ft 10 kts 302°
2026-04-21 05:14 25.24952 55.37766 29 ft 66 kts 301°
2026-04-21 05:14 25.25296 55.37142 30 ft 120 kts 301°
2026-04-21 05:14 25.25810 55.36218 31 ft 161 kts 301°
2026-04-21 05:15 25.26390 55.35114 468 ft 166 kts 299°
2026-04-21 05:15 25.26987 55.33990 948 ft 174 kts 303°
2026-04-21 05:15 25.27648 55.32837 1371 ft 187 kts 304°
2026-04-21 05:15 25.28392 55.31538 1653 ft 212 kts 304°
2026-04-21 05:16 25.29090 55.30021 2063 ft 233 kts 287°
2026-04-21 05:16 25.29027 55.28225 2811 ft 240 kts 253°
2026-04-21 05:16 25.28388 55.26540 3633 ft 242 kts 245°
2026-04-21 05:16 25.27648 55.24853 4426 ft 245 kts 244°
2026-04-21 05:17 25.26902 55.23154 5277 ft 246 kts 245°
2026-04-21 05:17 25.26164 55.21452 6114 ft 246 kts 245°
2026-04-21 05:17 25.25431 55.19740 6909 ft 247 kts 246°
2026-04-21 05:17 25.24557 55.18113 7726 ft 248 kts 231°
2026-04-21 05:18 25.23167 55.16988 8553 ft 254 kts 204°
2026-04-21 05:18 25.21384 55.16696 9265 ft 266 kts 181°
2026-04-21 05:18 25.19542 55.17086 9954 ft 277 kts 159°
2026-04-21 05:18 25.17947 55.18339 10527 ft 292 kts 131°
2026-04-21 05:19 25.16834 55.20276 11008 ft 305 kts 118°
2026-04-21 05:19 25.15861 55.22388 11652 ft 312 kts 117°
2026-04-21 05:19 25.14872 55.24537 12361 ft 315 kts 118°
2026-04-21 05:19 25.13860 55.26695 13109 ft 318 kts 118°
2026-04-21 05:20 25.12834 55.28867 13805 ft 321 kts 119°
2026-04-21 05:20 25.11784 55.31065 14422 ft 325 kts 119°
2026-04-21 05:20 25.10717 55.33287 15014 ft 329 kts 119°
2026-04-21 05:20 25.09702 55.35571 15597 ft 334 kts 115°
2026-04-21 05:21 25.08755 55.37922 16185 ft 337 kts 115°
2026-04-21 05:21 25.07800 55.40302 16766 ft 341 kts 115°
2026-04-21 05:21 25.06829 55.42713 17339 ft 347 kts 115°
2026-04-21 05:21 25.05868 55.45210 17620 ft 361 kts 114°
2026-04-21 05:22 25.04878 55.47822 17881 ft 377 kts 114°
2026-04-21 05:22 25.03859 55.50496 18122 ft 391 kts 114°
2026-04-21 05:22 25.02779 55.53309 18319 ft 405 kts 114°
2026-04-21 05:22 25.01539 55.56156 18524 ft 418 kts 120°
2026-04-21 05:23 25.00068 55.58969 18786 ft 429 kts 122°
2026-04-21 05:23 24.98526 55.61818 19194 ft 435 kts 122°
2026-04-21 05:23 24.96965 55.64697 19670 ft 439 kts 122°
2026-04-21 05:23 24.95392 55.67599 20165 ft 443 kts 122°
2026-04-21 05:24 24.93736 55.70475 20643 ft 446 kts 127°
2026-04-21 05:24 24.91928 55.73267 21132 ft 449 kts 128°
2026-04-21 05:24 24.90082 55.76050 21605 ft 452 kts 128°
2026-04-21 05:24 24.88219 55.78850 22099 ft 455 kts 128°
2026-04-21 05:25 24.86340 55.81674 22545 ft 459 kts 128°
2026-04-21 05:25 24.84449 55.84523 22998 ft 462 kts 128°
2026-04-21 05:25 24.82543 55.87382 23472 ft 464 kts 129°
2026-04-21 05:25 24.80605 55.90238 23869 ft 467 kts 129°
2026-04-21 05:26 24.78619 55.93079 24274 ft 468 kts 132°
2026-04-21 05:26 24.76414 55.95720 24659 ft 469 kts 137°
2026-04-21 05:26 24.74110 55.98204 25051 ft 471 kts 139°
2026-04-21 05:26 24.71705 56.00663 25438 ft 473 kts 140°
2026-04-21 05:27 24.69271 56.03104 25827 ft 475 kts 140°
2026-04-21 05:27 24.66822 56.05560 26196 ft 477 kts 140°
2026-04-21 05:27 24.64372 56.08036 26564 ft 480 kts 140°
2026-04-21 05:27 24.61918 56.10536 26943 ft 482 kts 139°
2026-04-21 05:28 24.59464 56.13050 27304 ft 484 kts 139°
2026-04-21 05:28 24.57071 56.15668 27653 ft 488 kts 134°
2026-04-21 05:28 24.54794 56.18443 28018 ft 490 kts 134°
2026-04-21 05:28 24.52538 56.21265 28380 ft 492 kts 133°
2026-04-21 05:29 24.50294 56.24113 28692 ft 495 kts 133°
2026-04-21 05:29 24.48048 56.26981 29020 ft 497 kts 133°
2026-04-21 05:29 24.45793 56.29865 29314 ft 499 kts 133°
2026-04-21 05:29 24.43529 56.32757 29605 ft 501 kts 133°
2026-04-21 05:30 24.41256 56.35654 29929 ft 501 kts 133°
2026-04-21 05:30 24.38979 56.38551 30235 ft 501 kts 133°
2026-04-21 05:30 24.36696 56.41453 30509 ft 502 kts 133°
2026-04-21 05:30 24.34413 56.44352 30759 ft 503 kts 133°
2026-04-21 05:31 24.32121 56.47258 31034 ft 504 kts 133°
2026-04-21 05:31 24.29825 56.50169 31340 ft 505 kts 133°
2026-04-21 05:31 24.27599 56.53143 31641 ft 506 kts 129°
2026-04-21 05:31 24.25508 56.56246 31919 ft 507 kts 127°
2026-04-21 05:32 24.23475 56.59410 32211 ft 507 kts 127°
2026-04-21 05:32 24.21463 56.62578 32569 ft 506 kts 127°
2026-04-21 05:32 24.19442 56.65730 32849 ft 506 kts 127°
2026-04-21 05:32 24.17400 56.68872 33102 ft 507 kts 127°
2026-04-21 05:33 24.15337 56.72007 33361 ft 507 kts 127°
2026-04-21 05:33 24.13264 56.75134 33621 ft 508 kts 127°
2026-04-21 05:33 24.11182 56.78260 33862 ft 508 kts 127°
2026-04-21 05:33 24.09098 56.81383 34072 ft 509 kts 127°
2026-04-21 05:34 24.07005 56.84513 34226 ft 511 kts 127°
2026-04-21 05:34 24.04905 56.87653 34423 ft 511 kts 127°
2026-04-21 05:34 24.02805 56.90798 34604 ft 512 kts 127°
2026-04-21 05:34 24.00702 56.93947 34748 ft 515 kts 127°
2026-04-21 05:35 23.98607 56.97073 34902 ft 516 kts 127°
2026-04-21 05:35 23.96454 57.00286 35052 ft 518 kts 127°
2026-04-21 05:35 23.94322 57.03468 35221 ft 519 kts 127°
2026-04-21 05:35 23.92181 57.06656 35373 ft 521 kts 127°
2026-04-21 05:36 23.90035 57.09851 35552 ft 522 kts 127°
2026-04-21 05:36 23.87886 57.13058 35721 ft 523 kts 126°
2026-04-21 05:36 23.85734 57.16267 35887 ft 524 kts 126°
2026-04-21 05:36 23.83579 57.19474 36049 ft 524 kts 126°
2026-04-21 05:37 23.81436 57.22653 36191 ft 528 kts 126°
2026-04-21 05:37 23.79251 57.25885 36426 ft 528 kts 126°
2026-04-21 05:37 23.77076 57.29114 36581 ft 528 kts 126°
2026-04-21 05:37 23.74895 57.32357 36649 ft 531 kts 126°
2026-04-21 05:38 23.72706 57.35612 36764 ft 533 kts 126°
2026-04-21 05:38 23.70494 57.38861 36933 ft 534 kts 127°
2026-04-21 05:38 23.68208 57.42053 37148 ft 533 kts 128°
2026-04-21 05:38 23.65888 57.45207 37303 ft 534 kts 129°
2026-04-21 05:39 23.63551 57.48363 37419 ft 535 kts 128°
2026-04-21 05:39 23.61210 57.51530 37575 ft 537 kts 128°
2026-04-21 05:39 23.58870 57.54703 37689 ft 537 kts 128°
2026-04-21 05:39 23.56526 57.57894 37860 ft 540 kts 128°
2026-04-21 05:40 23.54185 57.61096 38051 ft 540 kts 128°
2026-04-21 05:40 23.51843 57.64310 38188 ft 542 kts 128°
2026-04-21 05:40 23.49502 57.67524 38364 ft 542 kts 128°
2026-04-21 05:40 23.47161 57.70723 38537 ft 541 kts 127°
2026-04-21 05:41 23.42454 57.77151 38710 ft 543 kts 128°
2026-04-21 05:41 23.40112 57.80362 38875 ft 541 kts 127°
2026-04-21 05:41 23.37771 57.83570 38904 ft 541 kts 128°
2026-04-21 05:42 23.33884 57.88863 38901 ft 536 kts 128°
2026-04-21 05:42 23.28469 57.96204 38881 ft 535 kts 128°
2026-04-21 05:43 23.23809 58.02540 38908 ft 535 kts 127°
2026-04-21 05:43 23.20205 58.08003 38902 ft 534 kts 121°
2026-04-21 05:44 23.16105 58.14735 38905 ft 534 kts 121°
2026-04-21 05:44 23.11956 58.21460 38908 ft 536 kts 122°
2026-04-21 05:45 23.07746 58.28157 38913 ft 535 kts 122°
2026-04-21 05:45 23.03458 58.34751 38908 ft 535 kts 128°
2026-04-21 05:46 23.00874 58.37667 38909 ft 537 kts 140°
2026-04-21 05:46 22.97903 58.40089 38927 ft 534 kts 147°
2026-04-21 05:46 22.91651 58.44432 38924 ft 534 kts 150°
2026-04-21 05:47 22.85319 58.48559 38926 ft 535 kts 150°
2026-04-21 05:47 22.78938 58.52713 38917 ft 536 kts 150°
2026-04-21 05:48 22.72563 58.56903 38925 ft 537 kts 149°
2026-04-21 05:48 22.66194 58.61115 38925 ft 536 kts 149°
2026-04-21 05:49 22.59836 58.65325 38928 ft 535 kts 149°
2026-04-21 05:49 22.53480 58.69520 38927 ft 536 kts 149°
2026-04-21 05:50 22.47101 58.73702 38925 ft 537 kts 149°
2026-04-21 05:50 22.40714 58.77912 38925 ft 538 kts 149°
2026-04-21 05:51 22.34338 58.82105 38924 ft 535 kts 149°
2026-04-21 05:51 22.27973 58.86296 38925 ft 536 kts 149°
2026-04-21 05:52 22.21606 58.90482 38919 ft 535 kts 149°
2026-04-21 05:52 22.15238 58.94640 38916 ft 535 kts 149°
2026-04-21 05:53 22.08865 58.98808 38918 ft 536 kts 149°
2026-04-21 05:53 22.02542 59.02938 38924 ft 535 kts 149°
2026-04-21 05:54 21.96180 59.07093 38913 ft 534 kts 149°
2026-04-21 05:54 21.89818 59.11229 38914 ft 534 kts 149°
2026-04-21 05:55 21.83467 59.15359 38904 ft 534 kts 149°
2026-04-21 05:55 21.77107 59.19504 38907 ft 534 kts 149°
2026-04-21 05:56 21.70755 59.23650 38911 ft 533 kts 149°
2026-04-21 05:56 21.64406 59.27780 38903 ft 535 kts 149°
2026-04-21 05:57 21.58041 59.31918 38901 ft 534 kts 149°
2026-04-21 05:57 21.51684 59.36044 38903 ft 534 kts 149°
2026-04-21 05:58 21.45329 59.40158 38900 ft 533 kts 149°
2026-04-21 05:58 21.39022 59.44243 38901 ft 534 kts 149°
2026-04-21 05:59 21.32657 59.48352 38895 ft 534 kts 149°
2026-04-21 06:00 21.23119 59.54523 38904 ft 534 kts 149°
2026-04-21 06:00 21.16762 59.58631 38905 ft 534 kts 149°
2026-04-21 06:01 21.10384 59.62734 38908 ft 533 kts 149°
2026-04-21 06:01 21.04030 59.66824 38905 ft 533 kts 149°
2026-04-21 06:02 20.97669 59.70910 38906 ft 533 kts 149°
2026-04-21 06:02 20.91311 59.74988 38905 ft 533 kts 149°
2026-04-21 06:03 20.84994 59.79034 38906 ft 533 kts 149°
2026-04-21 06:03 20.78636 59.83109 38907 ft 532 kts 149°
2026-04-21 06:04 20.72283 59.87176 38909 ft 533 kts 149°
2026-04-21 06:04 20.65924 59.91241 38908 ft 533 kts 149°
2026-04-21 06:05 20.59569 59.95305 38908 ft 532 kts 149°
2026-04-21 06:05 20.53215 59.99354 38906 ft 533 kts 148°
2026-04-21 06:06 20.46845 60.03414 38909 ft 533 kts 149°
2026-04-21 06:06 20.40493 60.07461 38911 ft 532 kts 149°
2026-04-21 06:07 20.34180 60.11484 38911 ft 532 kts 149°
2026-04-21 06:07 20.27813 60.15532 38909 ft 534 kts 149°
2026-04-21 06:08 20.21430 60.19587 38910 ft 533 kts 148°
2026-04-21 06:08 20.15070 60.23617 38911 ft 532 kts 149°
2026-04-21 06:09 20.08709 60.27648 38911 ft 531 kts 149°
2026-04-21 06:09 20.02723 60.32206 38909 ft 529 kts 138°
2026-04-21 06:10 19.97174 60.37363 38910 ft 531 kts 136°
2026-04-21 06:10 19.91686 60.42608 38911 ft 530 kts 136°
2026-04-21 06:11 19.86235 60.47824 38916 ft 530 kts 136°
2026-04-21 06:11 19.80753 60.53042 38911 ft 528 kts 136°
2026-04-21 06:12 19.75272 60.58246 38918 ft 529 kts 136°
2026-04-21 06:12 19.69776 60.63446 38916 ft 529 kts 136°
2026-04-21 06:13 19.64281 60.68640 38916 ft 529 kts 136°
2026-04-21 06:13 19.58794 60.73832 38916 ft 528 kts 136°
2026-04-21 06:14 19.53309 60.79015 38916 ft 527 kts 136°
2026-04-21 06:14 19.47873 60.84143 38917 ft 526 kts 136°
2026-04-21 06:15 19.42402 60.89308 38918 ft 527 kts 136°
2026-04-21 06:15 19.36927 60.94460 38919 ft 527 kts 136°
2026-04-21 06:16 19.31446 60.99617 38917 ft 527 kts 136°
2026-04-21 06:16 19.25973 61.04771 38927 ft 526 kts 136°
2026-04-21 06:17 19.20513 61.09899 38919 ft 523 kts 136°
2026-04-21 06:17 19.15063 61.15005 38919 ft 523 kts 136°
2026-04-21 06:18 19.09619 61.20104 38918 ft 522 kts 136°
2026-04-21 06:18 19.04175 61.25206 38919 ft 523 kts 135°
2026-04-21 06:19 18.98733 61.30302 38923 ft 524 kts 136°
2026-04-21 06:19 18.93267 61.35411 38926 ft 523 kts 136°
2026-04-21 06:20 18.87825 61.40493 38918 ft 522 kts 135°
2026-04-21 06:20 18.82402 61.45560 38919 ft 521 kts 136°
2026-04-21 06:21 18.77012 61.50595 38922 ft 521 kts 136°
2026-04-21 06:21 18.71570 61.55664 38919 ft 522 kts 136°
2026-04-21 06:22 18.66114 61.60734 38920 ft 523 kts 136°
2026-04-21 06:22 18.60655 61.65808 38919 ft 523 kts 135°
2026-04-21 06:23 18.55197 61.70879 38921 ft 524 kts 136°
2026-04-21 06:23 18.49737 61.75948 38917 ft 523 kts 135°
2026-04-21 06:24 18.44266 61.81027 38919 ft 525 kts 135°
2026-04-21 06:24 18.38792 61.86098 38920 ft 523 kts 135°
2026-04-21 06:25 18.33325 61.91165 38922 ft 524 kts 136°
2026-04-21 06:25 18.27856 61.96223 38921 ft 522 kts 136°
2026-04-21 06:26 18.22397 62.01264 38919 ft 522 kts 135°
2026-04-21 06:26 18.16931 62.06314 38919 ft 523 kts 136°
2026-04-21 06:27 18.11462 62.11359 38919 ft 523 kts 136°
2026-04-21 06:27 18.05992 62.16401 38919 ft 523 kts 136°
2026-04-21 06:28 18.00554 62.21408 38919 ft 524 kts 136°
2026-04-21 06:28 17.95079 62.26448 38918 ft 522 kts 136°
2026-04-21 06:29 17.89614 62.31474 38920 ft 522 kts 136°
2026-04-21 06:29 17.84156 62.36484 38920 ft 521 kts 136°
2026-04-21 06:30 17.78688 62.41505 38920 ft 522 kts 136°
2026-04-21 06:30 17.73219 62.46520 38919 ft 522 kts 136°
2026-04-21 06:31 17.67747 62.51535 38920 ft 523 kts 136°
2026-04-21 06:31 17.62272 62.56548 38919 ft 522 kts 136°
2026-04-21 06:32 17.56805 62.61549 38919 ft 523 kts 136°
2026-04-21 06:32 17.51311 62.66572 38919 ft 524 kts 136°
2026-04-21 06:33 17.45816 62.71591 38919 ft 524 kts 136°
2026-04-21 06:33 17.40351 62.76578 38916 ft 525 kts 136°
2026-04-21 06:34 17.34835 62.81607 38922 ft 526 kts 136°
2026-04-21 06:34 17.29317 62.86634 38922 ft 525 kts 136°
2026-04-21 06:35 17.23817 62.91640 38923 ft 523 kts 136°
2026-04-21 06:35 17.18324 62.96636 38922 ft 523 kts 136°
2026-04-21 06:36 17.12828 63.01631 38915 ft 524 kts 136°
2026-04-21 06:36 17.08243 63.05796 38916 ft 525 kts 136°
2026-04-21 06:37 17.01831 63.11614 38919 ft 525 kts 136°
2026-04-21 06:37 16.96268 63.16562 38919 ft 524 kts 138°
2026-04-21 06:38 16.91559 63.20617 38920 ft 523 kts 138°
2026-04-21 06:38 16.85983 63.25408 38919 ft 523 kts 138°
2026-04-21 06:39 16.80381 63.30247 38914 ft 523 kts 138°
2026-04-21 06:39 16.74787 63.35090 38917 ft 523 kts 138°
2026-04-21 06:40 16.69190 63.39934 38920 ft 523 kts 138°
2026-04-21 06:40 16.63591 63.44776 38928 ft 522 kts 138°
2026-04-21 06:41 16.58003 63.49602 38916 ft 520 kts 138°
2026-04-21 06:41 16.52441 63.54403 38917 ft 519 kts 138°
2026-04-21 06:42 16.46879 63.59201 38919 ft 519 kts 138°
2026-04-21 06:42 16.41314 63.63998 38919 ft 519 kts 138°
2026-04-21 06:43 16.35785 63.68759 38919 ft 519 kts 138°
2026-04-21 06:43 16.30218 63.73550 38917 ft 519 kts 138°
2026-04-21 06:44 16.24662 63.78326 38914 ft 516 kts 139°
2026-04-21 06:44 16.19131 63.83079 38917 ft 514 kts 139°
2026-04-21 06:45 16.13612 63.87818 38919 ft 514 kts 139°
2026-04-21 06:45 16.08094 63.92552 38919 ft 514 kts 139°
2026-04-21 06:46 16.02568 63.97290 38910 ft 514 kts 139°
2026-04-21 06:46 15.97046 64.02020 38917 ft 514 kts 139°
2026-04-21 06:47 15.91569 64.06708 38921 ft 514 kts 139°
2026-04-21 06:47 15.86062 64.11419 38919 ft 511 kts 139°
2026-04-21 06:48 15.80566 64.16116 38914 ft 511 kts 139°
2026-04-21 06:48 15.75078 64.20805 38905 ft 511 kts 139°
2026-04-21 06:49 15.69588 64.25491 38918 ft 511 kts 139°
2026-04-21 06:49 15.64099 64.30173 38916 ft 511 kts 139°
2026-04-21 06:50 15.58612 64.34849 38919 ft 511 kts 139°
2026-04-21 06:50 15.53120 64.39526 38919 ft 509 kts 140°
2026-04-21 06:51 15.47686 64.44152 38917 ft 508 kts 140°
2026-04-21 06:51 15.42224 64.48797 38916 ft 508 kts 140°
2026-04-21 06:52 15.36754 64.53446 38916 ft 508 kts 140°
2026-04-21 06:52 15.31288 64.58088 38917 ft 508 kts 140°
2026-04-21 06:53 15.25820 64.62729 38920 ft 508 kts 140°
2026-04-21 06:53 15.20352 64.67366 38918 ft 508 kts 140°
2026-04-21 06:54 15.14882 64.72003 38912 ft 508 kts 140°
2026-04-21 06:54 15.09410 64.76637 38917 ft 508 kts 140°
2026-04-21 06:55 15.03945 64.81263 38919 ft 508 kts 140°
2026-04-21 06:55 14.98475 64.85888 38919 ft 508 kts 140°
2026-04-21 06:56 14.93001 64.90516 38916 ft 508 kts 140°
2026-04-21 06:56 14.87530 64.95137 38903 ft 508 kts 140°
2026-04-21 06:57 14.82059 64.99755 38917 ft 507 kts 141°
2026-04-21 06:57 14.76611 65.04351 38917 ft 505 kts 141°
2026-04-21 06:58 14.71208 65.08905 38917 ft 505 kts 141°
2026-04-21 06:58 14.65766 65.13490 38916 ft 505 kts 141°
2026-04-21 06:59 14.60325 65.18070 38916 ft 505 kts 141°
2026-04-21 06:59 14.54883 65.22648 38916 ft 505 kts 141°
2026-04-21 07:00 14.49439 65.27221 38918 ft 505 kts 141°
2026-04-21 07:00 14.43990 65.31796 38921 ft 504 kts 141°
2026-04-21 07:01 14.38555 65.36356 38920 ft 502 kts 141°
2026-04-21 07:01 14.30427 65.43171 38916 ft 502 kts 141°
2026-04-21 07:02 14.25010 65.47709 38915 ft 502 kts 141°
2026-04-21 07:02 14.19590 65.52247 38916 ft 502 kts 141°
2026-04-21 07:03 14.14162 65.56789 38914 ft 502 kts 141°
2026-04-21 07:03 14.08736 65.61326 38914 ft 502 kts 141°
2026-04-21 07:04 14.03320 65.65852 38914 ft 500 kts 142°
2026-04-21 07:04 13.97919 65.70362 38914 ft 499 kts 142°
2026-04-21 07:05 13.92560 65.74835 38917 ft 499 kts 142°
2026-04-21 07:05 13.87159 65.79340 38916 ft 499 kts 142°
2026-04-21 07:06 13.81757 65.83843 38914 ft 499 kts 142°
2026-04-21 07:06 13.76350 65.88347 38913 ft 499 kts 142°
2026-04-21 07:07 13.70951 65.92842 38913 ft 499 kts 142°
2026-04-21 07:07 13.65593 65.97301 38911 ft 498 kts 143°
2026-04-21 07:08 13.60216 66.01772 38914 ft 496 kts 143°
2026-04-21 07:08 13.54845 66.06235 38913 ft 496 kts 143°
2026-04-21 07:09 13.49469 66.10700 38914 ft 496 kts 143°
2026-04-21 07:09 13.44097 66.15158 38914 ft 496 kts 143°
2026-04-21 07:10 13.38724 66.19616 38914 ft 496 kts 143°
2026-04-21 07:10 13.33350 66.24071 38910 ft 497 kts 143°
2026-04-21 07:11 13.28000 66.28505 38910 ft 496 kts 143°
2026-04-21 07:11 13.22641 66.32943 38912 ft 494 kts 143°
2026-04-21 07:12 13.17292 66.37370 38911 ft 494 kts 143°
2026-04-21 07:12 13.11941 66.41795 38914 ft 494 kts 143°
2026-04-21 07:13 13.06594 66.46215 38908 ft 494 kts 143°
2026-04-21 07:13 13.01239 66.50638 38912 ft 495 kts 143°
2026-04-21 07:14 12.95873 66.55069 38908 ft 495 kts 143°
2026-04-21 07:14 12.90544 66.59467 38908 ft 494 kts 144°
2026-04-21 07:15 12.85203 66.63874 38907 ft 492 kts 144°
2026-04-21 07:15 12.79878 66.68263 38912 ft 491 kts 144°
2026-04-21 07:16 12.74549 66.72653 38907 ft 492 kts 144°
2026-04-21 07:16 12.69205 66.77052 38911 ft 494 kts 144°
2026-04-21 07:17 12.63846 66.81462 38910 ft 494 kts 144°
2026-04-21 07:17 12.58489 66.85868 38912 ft 494 kts 144°
2026-04-21 07:18 12.53132 66.90273 38914 ft 494 kts 144°
2026-04-21 07:18 12.47797 66.94657 38911 ft 490 kts 144°
2026-04-21 07:19 12.42491 66.99014 38905 ft 489 kts 144°
2026-04-21 07:19 12.37180 67.03372 38908 ft 489 kts 144°
2026-04-21 07:20 12.31870 67.07726 38911 ft 489 kts 144°
2026-04-21 07:20 12.26552 67.12086 38911 ft 489 kts 144°
2026-04-21 07:21 12.21274 67.16410 38905 ft 489 kts 144°
2026-04-21 07:21 12.15962 67.20761 38908 ft 489 kts 144°
2026-04-21 07:22 12.10657 67.25104 38898 ft 486 kts 145°
2026-04-21 07:22 12.05407 67.29401 38902 ft 482 kts 145°
2026-04-21 07:23 12.00177 67.33677 38916 ft 481 kts 145°
2026-04-21 07:23 11.94945 67.37952 38916 ft 482 kts 145°
2026-04-21 07:24 11.89714 67.42227 38896 ft 482 kts 145°
2026-04-21 07:24 11.84476 67.46503 38905 ft 482 kts 145°
2026-04-21 07:25 11.79242 67.50775 38902 ft 481 kts 145°
2026-04-21 07:25 11.74053 67.55009 38902 ft 480 kts 146°
2026-04-21 07:26 11.68858 67.59248 38903 ft 475 kts 146°
2026-04-21 07:26 11.63702 67.63451 38908 ft 474 kts 146°
2026-04-21 07:27 11.58551 67.67645 38907 ft 474 kts 146°
2026-04-21 07:27 11.53399 67.71839 38906 ft 474 kts 146°
2026-04-21 07:28 11.48241 67.76037 38897 ft 474 kts 146°
2026-04-21 07:28 11.43088 67.80229 38905 ft 474 kts 146°
2026-04-21 07:29 11.37936 67.84418 38904 ft 474 kts 146°
2026-04-21 07:29 11.32785 67.88604 38904 ft 474 kts 146°
2026-04-21 07:30 11.28504 67.92082 38906 ft 474 kts 146°
2026-04-21 07:30 11.23352 67.96265 38905 ft 474 kts 146°
2026-04-21 07:31 11.17360 68.01128 38892 ft 474 kts 146°
2026-04-21 07:31 11.13038 68.04633 38906 ft 474 kts 146°
2026-04-21 07:32 11.07886 68.08811 38903 ft 474 kts 146°
2026-04-21 07:32 11.02729 68.12991 38903 ft 474 kts 146°
2026-04-21 07:33 10.97604 68.17143 38903 ft 474 kts 146°
2026-04-21 07:33 10.92446 68.21320 38898 ft 473 kts 147°
2026-04-21 07:34 10.87311 68.25478 38900 ft 470 kts 147°
2026-04-21 07:34 10.82193 68.29618 38900 ft 470 kts 147°
2026-04-21 07:35 10.77076 68.33755 38897 ft 470 kts 147°
2026-04-21 07:35 10.71960 68.37889 38898 ft 470 kts 147°
2026-04-21 07:36 10.66839 68.42026 38898 ft 470 kts 147°
2026-04-21 07:36 10.61722 68.46159 38896 ft 470 kts 147°
2026-04-21 07:37 10.56601 68.50292 38900 ft 470 kts 147°
2026-04-21 07:37 10.51480 68.54424 38894 ft 470 kts 147°
2026-04-21 07:38 10.46376 68.58542 38901 ft 467 kts 147°
2026-04-21 07:38 10.41286 68.62645 38899 ft 467 kts 147°
2026-04-21 07:39 10.36197 68.66745 38897 ft 467 kts 147°
2026-04-21 07:39 10.31108 68.70843 38895 ft 467 kts 147°
2026-04-21 07:40 10.26015 68.74944 38890 ft 467 kts 147°
2026-04-21 07:40 10.20928 68.79038 38881 ft 467 kts 147°
2026-04-21 07:41 10.15834 68.83136 38893 ft 468 kts 147°
2026-04-21 07:41 10.10732 68.87237 38889 ft 468 kts 147°
2026-04-21 07:42 10.05640 68.91331 38890 ft 467 kts 147°
2026-04-21 07:42 10.00554 68.95418 38888 ft 466 kts 147°
2026-04-21 07:43 9.95505 68.99473 38879 ft 466 kts 147°
2026-04-21 07:43 9.90415 69.03558 38893 ft 466 kts 147°
2026-04-21 07:44 9.85326 69.07641 38891 ft 467 kts 147°
2026-04-21 07:44 9.80227 69.11731 38892 ft 468 kts 147°
2026-04-21 07:45 9.75124 69.15823 38889 ft 468 kts 147°
2026-04-21 07:45 9.70021 69.19915 38885 ft 467 kts 147°
2026-04-21 07:46 9.64913 69.24002 38889 ft 467 kts 147°
2026-04-21 07:46 9.59807 69.28085 38889 ft 467 kts 147°
2026-04-21 07:47 9.54705 69.32165 38875 ft 467 kts 147°
2026-04-21 07:47 9.49590 69.36253 38889 ft 469 kts 147°
2026-04-21 07:48 9.44465 69.40348 38889 ft 469 kts 147°
2026-04-21 07:48 9.39342 69.44442 38887 ft 469 kts 147°
2026-04-21 07:49 9.34245 69.48512 38886 ft 469 kts 147°
2026-04-21 07:49 9.29116 69.52606 38888 ft 469 kts 147°
2026-04-21 07:50 9.23988 69.56698 38887 ft 469 kts 147°
2026-04-21 07:50 9.18861 69.60787 38884 ft 469 kts 146°
2026-04-21 07:51 9.13730 69.64877 38884 ft 470 kts 146°
2026-04-21 07:51 9.08596 69.68969 38884 ft 470 kts 146°
2026-04-21 07:52 9.03457 69.73063 38884 ft 470 kts 146°
2026-04-21 07:52 8.98322 69.77153 38884 ft 470 kts 146°
2026-04-21 07:53 8.93183 69.81244 38883 ft 470 kts 146°
2026-04-21 07:53 8.88083 69.85303 38874 ft 470 kts 146°
2026-04-21 07:54 8.82913 69.89416 38883 ft 469 kts 147°
2026-04-21 07:54 8.77821 69.93466 38884 ft 469 kts 147°
2026-04-21 07:55 8.72690 69.97544 38885 ft 468 kts 147°
2026-04-21 07:55 8.67568 70.01614 38883 ft 468 kts 147°
2026-04-21 07:56 8.62444 70.05684 38884 ft 469 kts 147°
2026-04-21 07:56 8.57317 70.09756 38881 ft 469 kts 147°
2026-04-21 07:57 8.52188 70.13827 38878 ft 469 kts 147°
2026-04-21 07:57 8.47059 70.17897 38878 ft 469 kts 147°
2026-04-21 07:58 8.41922 70.21972 38878 ft 469 kts 147°
2026-04-21 07:58 8.36787 70.26044 38878 ft 469 kts 147°
2026-04-21 07:59 8.31653 70.30114 38879 ft 469 kts 147°
2026-04-21 07:59 8.26517 70.34184 38875 ft 469 kts 147°
2026-04-21 08:00 8.21415 70.38225 38869 ft 469 kts 147°
2026-04-21 08:00 8.16276 70.42294 38878 ft 470 kts 147°
2026-04-21 08:01 8.11131 70.46367 38873 ft 470 kts 147°
2026-04-21 08:02 8.03411 70.52477 38875 ft 470 kts 147°
2026-04-21 08:02 7.98261 70.56551 38869 ft 469 kts 147°
2026-04-21 08:03 7.93127 70.60611 38864 ft 468 kts 147°
2026-04-21 08:03 7.88002 70.64662 38874 ft 468 kts 147°
2026-04-21 08:04 7.82871 70.68715 38872 ft 469 kts 147°
2026-04-21 08:04 7.77736 70.72771 38870 ft 469 kts 146°
2026-04-21 08:05 7.72598 70.76829 38867 ft 469 kts 147°
2026-04-21 08:05 7.67462 70.80884 38865 ft 469 kts 147°
2026-04-21 08:06 7.62357 70.84912 38868 ft 469 kts 147°
2026-04-21 08:06 7.57220 70.88966 38866 ft 469 kts 146°
2026-04-21 08:07 7.52082 70.93018 38868 ft 468 kts 146°
2026-04-21 08:07 7.46953 70.97062 38868 ft 468 kts 146°
2026-04-21 08:08 7.41814 71.01105 38869 ft 468 kts 146°
2026-04-21 08:08 7.36680 71.05144 38864 ft 468 kts 146°
2026-04-21 08:09 7.31546 71.09183 38866 ft 468 kts 147°
2026-04-21 08:09 7.26412 71.13221 38868 ft 468 kts 147°
2026-04-21 08:10 7.21270 71.17264 38869 ft 468 kts 147°
2026-04-21 08:10 7.16172 71.21271 38866 ft 467 kts 146°
2026-04-21 08:11 7.11055 71.25293 38866 ft 466 kts 146°
2026-04-21 08:11 7.05941 71.29311 38864 ft 466 kts 146°
2026-04-21 08:12 7.00829 71.33326 38864 ft 466 kts 146°
2026-04-21 08:12 6.95717 71.37340 38865 ft 466 kts 146°
2026-04-21 08:13 6.90601 71.41355 38864 ft 466 kts 146°
2026-04-21 08:13 6.85487 71.45369 38864 ft 466 kts 146°
2026-04-21 08:14 6.80373 71.49380 38865 ft 466 kts 146°
2026-04-21 08:14 6.75265 71.53386 38862 ft 465 kts 146°
2026-04-21 08:15 6.70163 71.57387 38859 ft 465 kts 146°
2026-04-21 08:15 6.65065 71.61383 38862 ft 464 kts 146°
2026-04-21 08:16 6.59970 71.65375 38859 ft 464 kts 146°
2026-04-21 08:16 6.54880 71.69363 38859 ft 464 kts 146°
2026-04-21 08:17 6.49786 71.73353 38852 ft 464 kts 146°
2026-04-21 08:17 6.44728 71.77314 38856 ft 463 kts 145°
2026-04-21 08:18 6.39643 71.81294 38857 ft 463 kts 145°
2026-04-21 08:18 6.34308 71.84864 38857 ft 459 kts 154°
2026-04-21 08:19 6.28734 71.87982 38856 ft 459 kts 154°
2026-04-21 08:19 6.23150 71.91097 38856 ft 459 kts 154°
2026-04-21 08:20 6.17579 71.94210 38853 ft 457 kts 154°
2026-04-21 08:20 6.12963 71.96789 38854 ft 456 kts 153°
2026-04-21 08:21 6.07433 71.99880 38853 ft 454 kts 153°
2026-04-21 08:21 6.01911 72.02966 38851 ft 454 kts 153°
2026-04-21 08:22 5.96383 72.06054 38849 ft 454 kts 153°
2026-04-21 08:22 5.90862 72.09137 38851 ft 454 kts 153°
2026-04-21 08:23 5.85339 72.12225 38853 ft 454 kts 153°
2026-04-21 08:23 5.79850 72.15285 38851 ft 454 kts 153°
2026-04-21 08:24 5.74327 72.18362 38848 ft 454 kts 153°
2026-04-21 08:24 5.68803 72.21441 38848 ft 454 kts 153°
2026-04-21 08:25 5.63278 72.24520 38848 ft 454 kts 153°
2026-04-21 08:25 5.57761 72.27595 38847 ft 453 kts 153°
2026-04-21 08:26 5.52256 72.30662 38846 ft 452 kts 153°
2026-04-21 08:26 5.46758 72.33724 38845 ft 452 kts 153°
2026-04-21 08:27 5.44462 72.35003 38845 ft 452 kts 153°
2026-04-21 08:30 5.42921 72.35862 38844 ft 452 kts 153°
2026-04-21 08:31 5.37426 72.38922 38847 ft 451 kts 153°
2026-04-21 08:31 5.31943 72.41975 38845 ft 451 kts 153°
2026-04-21 08:32 5.26493 72.45008 38845 ft 451 kts 153°
2026-04-21 08:32 5.21006 72.48062 38842 ft 451 kts 153°
2026-04-21 08:32 5.18275 72.49582 38518 ft 448 kts 153°
2026-04-21 08:33 5.15545 72.51100 37782 ft 451 kts 153°
2026-04-21 08:33 5.12794 72.52630 36966 ft 455 kts 153°
2026-04-21 08:33 5.10007 72.54180 36164 ft 460 kts 153°
2026-04-21 08:33 5.07195 72.55743 35354 ft 465 kts 153°
2026-04-21 08:34 5.04352 72.57325 34554 ft 469 kts 153°
2026-04-21 08:34 5.01479 72.58921 33772 ft 474 kts 153°
2026-04-21 08:34 4.98581 72.60533 32845 ft 479 kts 153°
2026-04-21 08:34 4.95653 72.62160 31957 ft 483 kts 153°
2026-04-21 08:35 4.92701 72.63802 31076 ft 487 kts 153°
2026-04-21 08:35 4.89730 72.65453 30195 ft 491 kts 153°
2026-04-21 08:35 4.86728 72.67121 29222 ft 494 kts 153°
2026-04-21 08:35 4.83713 72.68797 28367 ft 495 kts 153°
2026-04-21 08:36 4.80746 72.70446 27622 ft 492 kts 153°
2026-04-21 08:36 4.77763 72.72104 26917 ft 489 kts 153°
2026-04-21 08:36 4.74800 72.73751 26256 ft 485 kts 153°
2026-04-21 08:36 4.71866 72.75381 25615 ft 480 kts 152°
2026-04-21 08:37 4.68958 72.76997 24980 ft 476 kts 152°
2026-04-21 08:37 4.66074 72.78598 24369 ft 471 kts 152°
2026-04-21 08:37 4.63223 72.80179 23772 ft 466 kts 152°
2026-04-21 08:37 4.60394 72.81749 23151 ft 462 kts 152°
2026-04-21 08:38 4.57593 72.83305 22448 ft 458 kts 152°
2026-04-21 08:38 4.54851 72.84829 21438 ft 442 kts 152°
2026-04-21 08:38 4.52257 72.86271 20827 ft 410 kts 152°
2026-04-21 08:38 4.49837 72.87616 20303 ft 387 kts 151°
2026-04-21 08:39 4.47457 72.88936 19751 ft 395 kts 151°
2026-04-21 08:39 4.45040 72.90277 19201 ft 398 kts 151°
2026-04-21 08:39 4.42610 72.91625 18660 ft 400 kts 151°
2026-04-21 08:39 4.40176 72.92975 18110 ft 401 kts 151°
2026-04-21 08:40 4.37726 72.94335 17496 ft 401 kts 151°
2026-04-21 08:40 4.35285 72.95689 16938 ft 400 kts 151°
2026-04-21 08:40 4.32855 72.97038 16382 ft 398 kts 151°
2026-04-21 08:40 4.30438 72.98379 15831 ft 396 kts 151°
2026-04-21 08:41 4.28035 72.99712 15273 ft 394 kts 151°
2026-04-21 08:41 4.25646 73.01037 14715 ft 392 kts 151°
2026-04-21 08:41 4.23263 73.02358 14152 ft 390 kts 151°
2026-04-21 08:41 4.20892 73.03674 13584 ft 389 kts 151°
2026-04-21 08:42 4.18531 73.04983 12991 ft 387 kts 151°
2026-04-21 08:42 4.16186 73.06284 12425 ft 383 kts 151°
2026-04-21 08:42 4.13890 73.07557 11862 ft 380 kts 151°
2026-04-21 08:42 4.11591 73.08832 11444 ft 374 kts 151°
2026-04-21 08:43 4.09340 73.10080 11162 ft 364 kts 151°
2026-04-21 08:43 4.07172 73.11281 11053 ft 348 kts 151°
2026-04-21 08:43 4.05132 73.12413 10949 ft 321 kts 151°
2026-04-21 08:43 4.03258 73.13452 10824 ft 296 kts 151°
2026-04-21 08:44 4.01482 73.14436 10695 ft 289 kts 151°
2026-04-21 08:44 3.99730 73.15406 10533 ft 286 kts 151°
2026-04-21 08:44 3.97995 73.16369 10286 ft 287 kts 151°
2026-04-21 08:44 3.96334 73.17502 9903 ft 292 kts 136°
2026-04-21 08:45 3.95185 73.19162 9555 ft 293 kts 111°
2026-04-21 08:45 3.94814 73.21154 9205 ft 292 kts 92°
2026-04-21 08:45 3.94795 73.23186 8853 ft 291 kts 89°
2026-04-21 08:45 3.94818 73.25188 8377 ft 284 kts 89°
2026-04-21 08:46 3.94836 73.27166 8006 ft 285 kts 90°
2026-04-21 08:46 3.94848 73.29154 7680 ft 285 kts 90°
2026-04-21 08:46 3.94857 73.31109 7355 ft 284 kts 90°
2026-04-21 08:46 3.94866 73.33081 7021 ft 283 kts 90°
2026-04-21 08:47 3.94872 73.35049 6696 ft 282 kts 90°
2026-04-21 08:47 3.94878 73.37005 6383 ft 281 kts 90°
2026-04-21 08:47 3.94883 73.38958 6066 ft 279 kts 90°
2026-04-21 08:47 3.94887 73.40896 5725 ft 277 kts 90°
2026-04-21 08:48 3.94892 73.42813 5424 ft 274 kts 90°
2026-04-21 08:48 3.94894 73.44720 5081 ft 273 kts 90°
2026-04-21 08:48 3.94893 73.46612 4850 ft 266 kts 90°
2026-04-21 08:48 3.94892 73.48391 4654 ft 245 kts 90°
2026-04-21 08:49 3.94895 73.50028 4398 ft 227 kts 89°
2026-04-21 08:49 3.95248 73.51541 4277 ft 229 kts 57°
2026-04-21 08:49 3.96460 73.52533 4182 ft 228 kts 21°
2026-04-21 08:49 3.97996 73.52920 3960 ft 229 kts
2026-04-21 08:50 3.99575 73.53018 3647 ft 232 kts
2026-04-21 08:50 4.01198 73.53071 3286 ft 236 kts
2026-04-21 08:50 4.02847 73.53083 2940 ft 236 kts 360°
2026-04-21 08:50 4.04452 73.53083 2639 ft 224 kts
2026-04-21 08:51 4.05965 73.53097 2372 ft 211 kts
2026-04-21 08:51 4.07425 73.53102 2103 ft 209 kts 359°
2026-04-21 08:51 4.08872 73.53100 1820 ft 205 kts 360°
2026-04-21 08:51 4.10261 73.53102 1614 ft 193 kts 359°
2026-04-21 08:52 4.11558 73.53105 1353 ft 180 kts 360°
2026-04-21 08:52 4.12770 73.53105 1104 ft 169 kts 360°
2026-04-21 08:52 4.13905 73.53105 901 ft 157 kts 360°
2026-04-21 08:52 4.14944 73.53106 721 ft 143 kts 359°
2026-04-21 08:53 4.15914 73.53106 562 ft 141 kts 358°
2026-04-21 08:53 4.16913 73.53101 376 ft 146 kts 358°
2026-04-21 08:53 4.17935 73.53103 173 ft 147 kts 359°
2026-04-21 08:53 4.18950 73.53102 28 ft 141 kts 358°
2026-04-21 08:54 4.19803 73.53096 17 ft 103 kts 359°
2026-04-21 08:54 4.20391 73.53099 16 ft 52 kts